Location: Fayetteville
(35.0530°N, 78.8790°W)
Time: 17:59:17
(UTC-05:00)

Hubble Space Telescope - Pass Details

Date: 29 November 2021
Orbit: 534 x 538 km, 28.5° (Epoch: 28 January)

Event Time Altitude Azimuth Distance (km) Brightness Sun altitude
Exits shadow 05:46:08 17° 237° (WSW) 1,370 2.5 -15.7°
Maximum altitude 05:48:32 31° 184° (S) 941 2.1 -15.2°
Drops below altitude 10° 05:52:12 10° 122° (ESE) 1,775 4.7 -14.5°
Sets 05:54:37 0° 111° (ESE) 2,665 6.3 -14.0°
